Location: Cisewo
(53.3833°N, 14.9000°E)
Time: 11:33:42
(UTC+00:00)

Genesis I - Pass Details

Date: 18 April 2021
Orbit: 482 x 537 km, 64.5° (Epoch: 14 May)

Event Time Altitude Azimuth Distance (km) Brightness Sun altitude
Rises 20:17:59 0° 313° (NW) 2,669 8.6 -16.9°
Reaches altitude 10° 20:20:10 10° 310° (NW) 1,784 7.2 -17.1°
Maximum altitude 20:24:08 62° 230° (SW) 603 3.4 -17.5°
Enters shadow 20:25:27 38° 166° (SSE) 823 3.7 -17.6°
